Location: Newark
(34.1333°N, 7.9667°W)
Time: 03:32:02
(UTC+00:00)

Courier 1B - All Passes

Search period start: 13 June 2021 00:00
Search period end: 23 June 2021 00:00
Orbit: 962 x 1209 km, 28.3° (Epoch: 12 June)

Date Brightness Start Highest point End Pass type
(mag) Time Alt. Az. Time Alt. Az. Time Alt. Az.
13 Jun - 12:55:52 10° SSW 13:00:50 18° SSE 13:05:41 10° ESE daylight
13 Jun - 14:47:28 10° SW 14:54:28 39° SSE 15:01:07 10° E daylight
13 Jun - 16:41:07 10° WSW 16:48:20 55° S 16:55:07 10° ESE daylight
13 Jun - 18:35:24 10° W 18:42:09 45° SSW 18:48:31 10° ESE daylight
13 Jun - 20:30:27 10° WSW 20:35:34 22° SSW 20:40:31 10° SSE visible
14 Jun - 12:03:31 10° S 12:07:07 14° SSE 12:10:39 10° ESE daylight
14 Jun - 13:53:52 10° SW 14:00:40 34° SSE 14:07:12 10° E daylight
14 Jun - 15:47:11 10° WSW 15:54:31 53° S 16:01:26 10° E daylight
14 Jun - 17:41:22 10° W 17:48:25 50° S 17:55:02 10° ESE daylight
14 Jun - 19:36:07 10° W 19:41:59 29° SSW 19:47:35 10° SE daylight
15 Jun - 13:00:26 10° SSW 13:06:52 28° SSE 13:13:08 10° ESE daylight
15 Jun - 14:53:18 10° WSW 15:00:40 49° S 15:07:41 10° E daylight
15 Jun - 16:47:22 10° W 16:54:38 54° S 17:01:28 10° ESE daylight
15 Jun - 18:41:55 10° W 18:48:20 35° SSW 18:54:26 10° SE daylight
15 Jun - 20:38:23 10° WSW 20:41:35 14° SSW 20:44:43 10° S visible
16 Jun - 12:07:16 10° SSW 12:13:05 23° SSE 12:18:51 10° ESE daylight
16 Jun - 13:59:30 10° SW 14:06:49 45° SSE 14:13:52 10° E daylight
16 Jun - 15:53:21 10° WSW 16:00:48 56° S 16:07:49 10° ESE daylight
16 Jun - 17:47:47 10° W 17:54:39 42° SSW 18:01:07 10° SE daylight
16 Jun - 19:43:19 10° WSW 19:48:02 19° SSW 19:52:35 10° SSE daylight
17 Jun - 11:14:27 10° S 11:19:21 18° SSE 11:24:12 10° ESE daylight
17 Jun - 13:05:49 10° SW 13:12:58 39° SSE 13:19:57 10° E daylight
17 Jun - 14:59:23 10° WSW 15:06:56 56° S 15:14:07 10° E daylight
17 Jun - 16:53:42 10° W 17:00:53 48° SSW 17:07:40 10° ESE daylight
17 Jun - 18:48:44 10° WSW 18:54:26 25° SSW 18:59:52 10° SSE daylight
18 Jun - 10:22:22 10° S 10:25:37 13° SSE 10:28:52 10° ESE daylight
18 Jun - 12:12:17 10° SW 12:19:08 33° SSE 12:25:54 10° E daylight
18 Jun - 14:05:28 10° WSW 14:13:02 53° S 14:20:20 10° E daylight
18 Jun - 15:59:38 10° W 16:07:04 53° S 16:14:06 10° ESE daylight
18 Jun - 17:54:23 10° W 18:00:47 31° SSW 18:06:50 10° SE daylight
18 Jun - 19:52:26 10° SW 19:53:59 11° SSW 19:55:31 10° SSW daylight
19 Jun - 11:18:58 10° SSW 11:25:20 27° SSE 11:31:41 10° ESE daylight
19 Jun - 13:11:38 10° WSW 13:19:08 49° S 13:26:29 10° E daylight
19 Jun - 15:05:37 10° W 15:13:12 56° S 15:20:27 10° ESE daylight
19 Jun - 17:00:10 10° W 17:07:03 38° SSW 17:13:36 10° SE daylight
19 Jun - 18:56:19 10° WSW 19:00:25 16° SSW 19:04:24 10° S daylight
20 Jun - 10:25:56 10° SSW 10:31:33 22° SSE 10:37:14 10° ESE daylight
20 Jun - 12:17:54 10° SW 12:25:15 44° SSE 12:32:32 10° E daylight
20 Jun - 14:11:38 10° WSW 14:19:17 57° S 14:26:42 10° ESE daylight
20 Jun - 16:06:01 10° W 16:13:17 45° SSW 16:20:11 10° SE daylight
20 Jun - 18:01:25 10° WSW 18:06:49 22° SSW 18:11:59 10° SSE daylight
21 Jun - 09:33:21 10° S 09:37:51 16° SSE 09:42:23 10° ESE daylight
21 Jun - 11:24:19 10° SW 11:31:23 38° SSE 11:38:30 10° E daylight
21 Jun - 13:17:42 10° WSW 13:25:22 56° S 13:32:52 10° E daylight
21 Jun - 15:11:57 10° W 15:19:26 50° S 15:26:38 10° ESE daylight
21 Jun - 17:06:54 10° W 17:13:08 28° SSW 17:19:06 10° SSE daylight
22 Jun - 08:41:48 10° SSE 08:44:09 12° SSE 08:46:31 10° SE daylight
22 Jun - 10:30:55 10° SW 10:37:34 32° SSE 10:44:19 10° E daylight
22 Jun - 12:23:53 10° WSW 12:31:26 53° S 12:38:59 10° E daylight
22 Jun - 14:17:55 10° W 14:25:33 55° S 14:32:57 10° ESE daylight
22 Jun - 16:12:35 10° W 16:19:24 34° SSW 16:25:57 10° SE daylight
22 Jun - 18:09:39 10° WSW 18:12:44 13° SSW 18:15:46 10° S daylight
